Location: Star Hoppers Observatory
(42.7905°N, 83.6127°W)
Time: 09:57:44
(UTC-04:00)

Daily predictions for brighter satellites

Satellite Brightness Start Highest point End
(mag) Time Altitude Azimuth Time Altitude Azimuth Time Altitude Azimuth
Cosmos 990 Rocket 4.4 20:13:39 10° SSW 20:18:53 72° WNW 20:24:08 10° NNE
Cosmos 1076 Rocket 4.3 20:15:35 10° NNE 20:19:24 31° ENE 20:23:10 10° SE
Cosmos 2344 3.8 20:13:17 10° SW 20:20:57 90° ENE 20:29:40 10° NE
Cosmos 1544 3.6 20:18:11 10° SSE 20:21:35 38° E 20:25:02 10° NNE
H-2A R/B (2) 3.7 20:21:21 10° S 20:22:16 11° S 20:23:22 10° SSE
Cosmos 1867 3.9 20:17:34 10° S 20:22:42 44° ESE 20:27:53 10° NE
Cosmos 1934 Rocket 4.0 20:17:35 10° S 20:23:42 84° E 20:29:48 10° N
Okean 3 Rocket 3.7 20:19:24 10° N 20:23:44 55° E 20:28:04 10° SSE
CZ-2D R/B 4.2 20:21:37 10° SE 20:24:59 29° ENE 20:28:23 10° N
FENGYUN 3A 3.7 20:19:38 10° SSE 20:24:59 69° ENE 20:30:22 10° N
Cosmos 1833 Rocket 3.1 20:22:32 10° NNW 20:27:54 44° ENE 20:33:15 10° SE
Cosmos 1805 3.5 20:24:14 10° SSE 20:27:58 47° E 20:31:45 10° NNE
Cosmos 1812 Rocket 4.2 20:25:59 10° SSW 20:30:20 61° W 20:34:42 10° N
ALOS 2.3 20:26:16 10° SSE 20:30:56 80° ENE 20:35:37 10° N
Helios 1A 4.2 20:27:38 10° ESE 20:30:59 24° ENE 20:34:23 10° NNE
Abrixas 3.3 20:29:49 10° WNW 20:32:32 41° SSW 20:35:14 10° SE
Envisat 4.3 20:29:25 10° ESE 20:33:12 22° ENE 20:37:00 10° NNE
RESURS DK-1 4.2 20:31:42 10° NW 20:35:28 34° WSW 20:39:13 10° S
Cosmos 2278 Rocket 2.6 20:33:01 10° SSW 20:38:40 69° WNW 20:44:22 10° NNE
ATLAS 5 CENTAUR R/B 2.2 20:36:44 10° S 20:41:03 39° ESE 20:45:43 10° NE
Cosmos 1125 Rocket 3.5 20:37:43 10° S 20:42:50 65° ESE 20:48:01 10° NNE
SeaSat 1 2.4 20:38:33 10° SSE 20:43:28 86° ENE 20:48:27 10° NNW
Cosmos 1733 4.2 20:41:18 10° SSE 20:44:32 26° E 20:47:47 10° NNE
Cosmos 1048 Rocket 4.0 20:39:42 10° NNW 20:44:49 64° ENE 20:49:53 10° SSE
GPS 2-05 Rocket1 4.4 20:43:04 10° SW 20:45:58 23° S 20:48:14 13° SE
Cosmos 1470 3.6 20:42:40 10° SSE 20:46:07 29° E 20:49:34 10° NNE
Cosmos 1766 Rocket 3.9 20:41:51 10° N 20:46:10 44° ENE 20:50:27 10° SSE
Cosmos-2242 3.6 20:44:57 10° SSE 20:48:47 34° E 20:52:40 10° NNE
GP-B 3.5 20:48:11 10° SSE 20:52:21 42° E 20:56:33 10° NNE
HJ-1C 4.2 20:51:23 10° S 20:54:42 54° W 20:58:05 10° NNW
Cosmos 2297 3.7 20:51:13 10° SSW 20:56:55 79° ESE 21:02:41 10° NNE
SJ-6B 4.4 20:54:14 10° SSW 20:57:40 35° W 21:01:09 10° NNW
BREEZE-M DEB (TANK) 3.1 20:55:19 10° WSW 20:58:11 86° SE 21:06:07 10° ENE
USA 186 1.3 20:58:06 27° ESE 20:58:51 38° ENE 21:00:58 10° N
Cosmos 1340 Rocket 3.3 20:55:53 10° N 20:59:39 38° ENE 21:02:27 16° SE
H-2A R/B 3.0 20:55:47 10° S 20:59:41 75° W 21:03:39 10° NNW
Resurs 01 Rocket 1.8 20:57:26 10° S 21:01:51 76° WSW 21:06:18 10° NNW
CZ-4B DEB 3.6 21:01:12 23° ESE 21:02:20 29° ENE 21:05:06 10° N
Cosmos 2082 Rocket 2.3 21:02:32 10° NNW 21:08:15 83° WSW 21:13:53 10° SSE
ISS -3.9 21:07:41 10° SW 21:10:53 66° SE 21:12:44 23° ENE
Meteor 1-29 3.3 21:10:18 10° NNE 21:13:37 40° E 21:16:41 11° S
Cosmos 2100 Rocket 4.0 21:09:04 10° S 21:15:17 64° E 21:21:35 10° NNE
Cosmos 1743 Rocket 3.9 21:13:03 10° N 21:17:19 45° ENE 21:19:40 24° SE
Cosmos 1500 Rocket 4.2 21:14:20 10° N 21:18:17 33° ENE 21:19:25 28° ESE
SAR-Lupe-4 3.5 21:16:30 14° SSE 21:19:33 88° ENE 21:23:10 10° NNW
SL-14 R/B 4.0 21:18:57 10° NNE 21:22:28 32° ENE 21:22:48 31° E
CZ-3B DEB 3.8 21:13:51 10° W 21:23:03 41° NNW 21:27:32 10° NE
COSMOS 2487 3.5 21:19:47 10° NNW 21:23:13 45° WSW 21:26:38 10° S
YAOGAN 6 3.9 21:24:20 24° ENE 21:24:20 24° ENE 21:27:11 10° NNE
Cosmos 1271 Rocket 2.7 21:21:19 10° S 21:25:19 88° E 21:29:23 10° N
Cosmos 2058 4.3 21:22:22 10° NNE 21:25:21 22° ENE 21:25:21 22° ENE
Cosmos 2251 Rocket 3.9 21:21:14 10° N 21:26:23 47° ENE 21:28:42 29° ESE
Cosmos 1328 4.1 21:25:52 10° N 21:29:42 45° ENE 21:30:23 40° ESE
Cosmos 372 Rocket 4.4 21:25:52 10° SSW 21:30:56 64° WNW 21:36:05 10° NNE
Cosmos 1674 3.4 21:28:21 10° NNW 21:32:03 53° W 21:35:46 10° S
Cosmos 1953 4.0 21:29:19 10° SW 21:33:04 36° WNW 21:36:51 10° N
USA 215 3.6 21:29:33 10° ENE 21:35:39 41° SE 21:41:43 10° SSW
Lacrosse 5 3.8 21:31:58 10° W 21:36:14 26° NNW 21:40:31 10° NNE
Cosmos 1408 Rocket 4.4 21:32:40 10° NNW 21:37:01 52° W 21:41:21 10° S
SAR-Lupe-1 4.5 21:36:02 20° S 21:38:18 61° WSW 21:41:52 10° NNW
Cosmos 1802 Rocket 3.8 21:32:58 10° S 21:39:03 76° E 21:45:15 10° N
Cosmos 2151 3.3 21:37:57 10° N 21:42:00 42° ENE 21:42:00 42° ENE
SPOT 5 4.0 21:42:54 28° ENE 21:43:20 29° ENE 21:47:50 10° N
Helios 1B rocket 2.8 21:39:25 10° N 21:43:32 67° WNW 21:47:36 10° SSW
Cosmos 1939 Rocket 2.8 21:42:56 41° SSE 21:44:20 80° ENE 21:48:31 10° N
TIMED 4.5 21:45:13 10° SSW 21:49:35 85° WNW 21:53:59 10° NNE
SJ-11-01 4.3 21:48:15 28° S 21:50:44 83° WSW 21:55:28 10° NNW
Cosmos 1842 Rocket 3.4 21:50:28 31° S 21:52:33 79° E 21:56:58 10° N
Cosmos 389 Rocket 4.3 21:55:11 21° NNE 21:55:11 21° NNE 21:56:32 10° NNE
Lacrosse 5 rocket 1.7 21:49:54 10° WNW 21:53:39 46° SW 21:54:09 43° SSW
Cosmos 2061 Rocket 4.2 21:50:01 10° SSW 21:56:24 74° W 22:02:52 10° N
Cosmos 1626 4.2 21:53:37 10° NNE 21:54:52 17° NNE 21:54:52 17° NNE
Cosmos 494 Rocket 3.8 21:52:23 10° NNW 21:57:32 87° ENE 21:59:02 47° SSE
Cosmos 2369 Rocket 3.3 22:01:46 26° ENE 22:01:46 26° ENE 22:04:32 10° NE
Cosmos 1459 Rocket 4.4 21:54:56 10° SSW 22:01:06 62° W 22:07:13 10° N
MetOp-B 4.3 22:02:47 48° E 22:03:10 49° ENE 22:08:20 10° N
Gblst 52 Del rocket 4.1 22:01:20 10° SW 22:07:10 60° SE 22:07:37 58° ESE
Cosmos 1184 Rocket 3.9 22:05:17 10° NNW 22:08:25 43° W 22:08:25 43° W
USA 267 4.2 22:06:11 26° ENE 22:08:56 37° NNE 22:14:51 10° NW
Cosmos 2233 Rocket 4.2 22:10:13 47° E 22:10:13 47° E 22:15:55 10° NNE
Cosmos 1833 Rocket 4.5 22:06:54 10° NW 22:11:35 28° WSW 22:16:15 10° SSW
Envisat 3.8 22:08:43 21° SSW 22:11:52 49° W 22:16:48 10° NNW
Cosmos 1864 Rocket 4.4 22:11:34 26° S 22:15:21 84° E 22:21:41 10° N
YAOGAN 11 4.4 22:20:03 62° NNE 22:20:03 62° NNE 22:23:57 10° N
NOAA 11 4.1 22:19:29 67° E 22:19:42 68° ENE 22:25:10 10° N
ERS-1 Rocket 3.1 22:23:15 60° SSW 22:24:00 71° WSW 22:29:03 10° NNW
ATLAS 5 CENTAUR R/B 3.6 22:21:30 10° WSW 22:25:47 32° NW 22:30:28 10° NNE
H-2A R/B 3.1 22:31:00 35° NE 22:31:00 35° NE 22:34:40 10° N
CZ-3 Stage 3 3.9 22:15:39 10° W 22:36:05 36° SSW 22:37:49 33° S
Cosmos 2221 4.2 22:45:55 29° N 22:45:55 29° N 22:48:06 10° N
CZ-4C R/B 4.3 22:48:37 16° NE 22:48:37 16° NE 22:49:44 10° NE
ISS -0.6 22:44:48 10° WNW 22:45:26 14° WNW 22:45:26 14° WNW
MetOp-A 4.4 22:49:15 63° W 22:49:15 63° W 22:54:25 10° NNW
H-2A R/B 4.4 22:57:07 17° N 22:57:07 17° N 22:58:07 10° N
ARGOS 3.5 22:55:16 62° NW 22:55:16 62° NW 22:59:45 10° NNW
MOS 1-B Rocket 4.3 23:01:31 80° SE 23:01:55 84° ENE 23:08:50 10° NNW
USA 215 3.5 23:12:23 10° NE 23:18:50 63° NW 23:25:15 10° WSW
Lacrosse 5 4.3 23:17:40 10° NW 23:20:46 16° N 23:22:01 15° NNE
SPOT 5 4.4 23:22:09 37° WNW 23:22:09 37° WNW 23:26:11 10° NNW
Terra 4.0 23:31:05 22° N 23:31:05 22° N 23:32:45 10° N
CZ-3B DEB 4.4 23:32:51 10° NW 23:35:01 14° NNW 23:35:01 14° NNW
Cosmos 2369 Rocket 3.7 23:43:23 32° NW 23:43:24 32° NW 23:48:23 10° N
USA 267 3.9 23:53:31 49° NW 23:53:31 49° NW 23:58:07 10° NW
